Year,Month,Day,Hour,Minute,Value (Times are PST for windgust in km/hr)
2016,11,24,00,00,19.30
2016,11,24,00,01,19.30
2016,11,24,00,02,19.30
2016,11,24,00,03,16.10
2016,11,24,00,04,9.60
2016,11,24,00,05,9.60
2016,11,24,00,06,19.30
2016,11,24,00,07,14.50
2016,11,24,00,08,16.10
2016,11,24,00,09,17.70
2016,11,24,00,10,12.90
2016,11,24,00,11,16.10
2016,11,24,00,12,12.90
2016,11,24,00,13,17.70
2016,11,24,00,14,12.90
2016,11,24,00,15,17.70
2016,11,24,00,16,17.70
2016,11,24,00,17,19.30
2016,11,24,00,18,17.70
2016,11,24,00,19,19.30
2016,11,24,00,20,12.90
2016,11,24,00,21,22.50
2016,11,24,00,22,24.20
2016,11,24,00,23,14.50
2016,11,24,00,24,24.20
2016,11,24,00,25,22.50
2016,11,24,00,26,22.50
2016,11,24,00,27,25.70
2016,11,24,00,28,22.50
2016,11,24,00,29,22.50
2016,11,24,00,30,24.20
2016,11,24,00,31,16.10
2016,11,24,00,32,14.50
2016,11,24,00,33,25.70
2016,11,24,00,34,27.40
2016,11,24,00,35,29.00
2016,11,24,00,36,22.50
2016,11,24,00,37,27.40
2016,11,24,00,38,14.50
2016,11,24,00,39,22.50
2016,11,24,00,40,24.20
2016,11,24,00,41,16.10
2016,11,24,00,42,22.50
2016,11,24,00,43,29.00
2016,11,24,00,44,24.20
2016,11,24,00,45,20.90
2016,11,24,00,46,22.50
2016,11,24,00,47,20.90
2016,11,24,00,48,24.20
2016,11,24,00,49,22.50
2016,11,24,00,50,22.50
2016,11,24,00,51,17.70
2016,11,24,00,52,17.70
2016,11,24,00,53,20.90
2016,11,24,00,54,24.20
2016,11,24,00,55,16.10
2016,11,24,00,56,25.70
2016,11,24,00,57,27.40
2016,11,24,00,58,25.70
2016,11,24,00,59,16.10
2016,11,24,01,00,24.20
2016,11,24,01,01,19.30
2016,11,24,01,02,24.20
2016,11,24,01,03,25.70
2016,11,24,01,04,25.70
2016,11,24,01,05,24.20
2016,11,24,01,06,14.50
2016,11,24,01,07,17.70
2016,11,24,01,08,16.10
2016,11,24,01,09,32.20
2016,11,24,01,10,29.00
2016,11,24,01,11,24.20
2016,11,24,01,12,22.50
2016,11,24,01,13,19.30
2016,11,24,01,14,17.70
2016,11,24,01,15,19.30
2016,11,24,01,16,24.20
2016,11,24,01,17,22.50
2016,11,24,01,18,30.60
2016,11,24,01,19,24.20
2016,11,24,01,20,17.70
2016,11,24,01,21,25.70
2016,11,24,01,22,20.90
2016,11,24,01,23,20.90
2016,11,24,01,24,22.50
2016,11,24,01,25,22.50
2016,11,24,01,26,17.70
2016,11,24,01,27,17.70
2016,11,24,01,28,19.30
2016,11,24,01,29,24.20
2016,11,24,01,30,14.50
2016,11,24,01,31,16.10
2016,11,24,01,32,17.70
2016,11,24,01,33,20.90
2016,11,24,01,34,17.70
2016,11,24,01,35,12.90
2016,11,24,01,36,12.90
2016,11,24,01,37,19.30
2016,11,24,01,38,16.10
2016,11,24,01,39,14.50
2016,11,24,01,40,8.10
2016,11,24,01,41,17.70
2016,11,24,01,42,14.50
2016,11,24,01,43,12.90
2016,11,24,01,44,12.90
2016,11,24,01,45,11.30
2016,11,24,01,46,16.10
2016,11,24,01,47,17.70
2016,11,24,01,48,11.30
2016,11,24,01,49,12.90
2016,11,24,01,50,14.50
2016,11,24,01,51,17.70
2016,11,24,01,52,12.90
2016,11,24,01,53,14.50
2016,11,24,01,54,14.50
2016,11,24,01,55,17.70
2016,11,24,01,56,11.30
2016,11,24,01,57,14.50
2016,11,24,01,58,22.50
2016,11,24,01,59,16.10
2016,11,24,02,00,16.10
2016,11,24,02,01,12.90
2016,11,24,02,02,20.90
2016,11,24,02,03,17.70
2016,11,24,02,04,19.30
2016,11,24,02,05,17.70
2016,11,24,02,06,12.90
2016,11,24,02,07,14.50
2016,11,24,02,08,14.50
2016,11,24,02,09,14.50
2016,11,24,02,10,27.40
2016,11,24,02,11,20.90
2016,11,24,02,12,20.90
2016,11,24,02,13,14.50
2016,11,24,02,14,14.50
2016,11,24,02,15,16.10
2016,11,24,02,16,17.70
2016,11,24,02,17,19.30
2016,11,24,02,18,20.90
2016,11,24,02,19,29.00
2016,11,24,02,20,20.90
2016,11,24,02,21,16.10
2016,11,24,02,22,22.50
2016,11,24,02,23,25.70
2016,11,24,02,24,20.90
2016,11,24,02,25,19.30
2016,11,24,02,26,27.40
2016,11,24,02,27,16.10
2016,11,24,02,28,19.30
2016,11,24,02,29,19.30
2016,11,24,02,30,17.70
2016,11,24,02,31,19.30
2016,11,24,02,32,17.70
2016,11,24,02,33,22.50
2016,11,24,02,34,27.40
2016,11,24,02,35,24.20
2016,11,24,02,36,22.50
2016,11,24,02,37,19.30
2016,11,24,02,38,16.10
2016,11,24,02,39,24.20
2016,11,24,02,40,19.30
2016,11,24,02,41,17.70
2016,11,24,02,42,20.90
2016,11,24,02,43,16.10
2016,11,24,02,44,17.70
2016,11,24,02,45,19.30
2016,11,24,02,46,11.30
2016,11,24,02,47,20.90
2016,11,24,02,48,14.50
2016,11,24,02,49,17.70
2016,11,24,02,50,16.10
2016,11,24,02,51,19.30
2016,11,24,02,52,22.50
2016,11,24,02,53,12.90
2016,11,24,02,54,16.10
2016,11,24,02,55,14.50
2016,11,24,02,56,22.50
2016,11,24,02,57,25.70
2016,11,24,02,58,19.30
2016,11,24,02,59,19.30
2016,11,24,03,00,17.70
2016,11,24,03,01,24.20
2016,11,24,03,02,17.70
2016,11,24,03,03,20.90
2016,11,24,03,04,20.90
2016,11,24,03,05,22.50
2016,11,24,03,06,17.70
2016,11,24,03,07,22.50
2016,11,24,03,08,19.30
2016,11,24,03,09,16.10
2016,11,24,03,10,25.70
2016,11,24,03,11,19.30
2016,11,24,03,12,14.50
2016,11,24,03,13,14.50
2016,11,24,03,14,19.30
2016,11,24,03,15,22.50
2016,11,24,03,16,17.70
2016,11,24,03,17,17.70
2016,11,24,03,18,16.10
2016,11,24,03,19,12.90
2016,11,24,03,20,20.90
2016,11,24,03,21,16.10
2016,11,24,03,22,17.70
2016,11,24,03,23,16.10
2016,11,24,03,24,20.90
2016,11,24,03,25,16.10
2016,11,24,03,26,16.10
2016,11,24,03,27,20.90
2016,11,24,03,28,22.50
2016,11,24,03,29,25.70
2016,11,24,03,30,22.50
2016,11,24,03,31,17.70
2016,11,24,03,32,14.50
2016,11,24,03,33,14.50
2016,11,24,03,34,22.50
2016,11,24,03,35,17.70
2016,11,24,03,36,22.50
2016,11,24,03,37,14.50
2016,11,24,03,38,19.30
2016,11,24,03,39,22.50
2016,11,24,03,40,17.70
2016,11,24,03,41,16.10
2016,11,24,03,42,19.30
2016,11,24,03,43,17.70
2016,11,24,03,44,16.10
2016,11,24,03,45,19.30
2016,11,24,03,46,19.30
2016,11,24,03,47,22.50
2016,11,24,03,48,20.90
2016,11,24,03,49,19.30
2016,11,24,03,50,14.50
2016,11,24,03,51,12.90
2016,11,24,03,52,24.20
2016,11,24,03,53,20.90
2016,11,24,03,54,20.90
2016,11,24,03,55,16.10
2016,11,24,03,56,19.30
2016,11,24,03,57,19.30
2016,11,24,03,58,22.50
2016,11,24,03,59,16.10
2016,11,24,04,00,20.90
2016,11,24,04,01,22.50
2016,11,24,04,02,24.20
2016,11,24,04,03,20.90
2016,11,24,04,04,20.90
2016,11,24,04,05,16.10
2016,11,24,04,06,12.90
2016,11,24,04,07,14.50
2016,11,24,04,08,16.10
2016,11,24,04,09,11.30
2016,11,24,04,10,12.90
2016,11,24,04,11,8.10
2016,11,24,04,12,12.90
2016,11,24,04,13,9.60
2016,11,24,04,14,12.90
2016,11,24,04,15,8.10
2016,11,24,04,16,11.30
2016,11,24,04,17,11.30
2016,11,24,04,18,11.30
2016,11,24,04,19,16.10
2016,11,24,04,20,14.50
2016,11,24,04,21,14.50
2016,11,24,04,22,17.70
2016,11,24,04,23,8.10
2016,11,24,04,24,8.10
2016,11,24,04,25,11.30
2016,11,24,04,26,9.60
2016,11,24,04,27,8.10
2016,11,24,04,28,16.10
2016,11,24,04,29,16.10
2016,11,24,04,30,17.70
2016,11,24,04,31,17.70
2016,11,24,04,32,19.30
2016,11,24,04,33,16.10
2016,11,24,04,34,14.50
2016,11,24,04,35,16.10
2016,11,24,04,36,19.30
2016,11,24,04,37,20.90
2016,11,24,04,38,19.30
2016,11,24,04,39,20.90
2016,11,24,04,40,17.70
2016,11,24,04,41,17.70
2016,11,24,04,42,16.10
2016,11,24,04,43,19.30
2016,11,24,04,44,19.30
2016,11,24,04,45,20.90
2016,11,24,04,46,16.10
2016,11,24,04,47,16.10
2016,11,24,04,48,17.70
2016,11,24,04,49,14.50
2016,11,24,04,50,16.10
2016,11,24,04,51,17.70
2016,11,24,04,52,19.30
2016,11,24,04,53,14.50
2016,11,24,04,54,17.70
2016,11,24,04,55,16.10
2016,11,24,04,56,19.30
2016,11,24,04,57,17.70
2016,11,24,04,58,16.10
2016,11,24,04,59,16.10
2016,11,24,05,00,20.90
2016,11,24,05,01,20.90
2016,11,24,05,02,19.30
2016,11,24,05,03,20.90
2016,11,24,05,04,22.50
2016,11,24,05,05,22.50
2016,11,24,05,06,20.90
2016,11,24,05,07,19.30
2016,11,24,05,08,16.10
2016,11,24,05,09,14.50
2016,11,24,05,10,14.50
2016,11,24,05,11,19.30
2016,11,24,05,12,14.50
2016,11,24,05,13,16.10
2016,11,24,05,14,16.10
2016,11,24,05,15,20.90
2016,11,24,05,16,19.30
2016,11,24,05,17,12.90
2016,11,24,05,18,9.60
2016,11,24,05,19,12.90
2016,11,24,05,20,14.50
2016,11,24,05,21,16.10
2016,11,24,05,22,8.10
2016,11,24,05,23,12.90
2016,11,24,05,24,17.70
2016,11,24,05,25,11.30
2016,11,24,05,26,12.90
2016,11,24,05,27,8.10
2016,11,24,05,28,16.10
2016,11,24,05,29,14.50
2016,11,24,05,30,12.90
2016,11,24,05,31,8.10
2016,11,24,05,32,12.90
2016,11,24,05,33,17.70
2016,11,24,05,34,12.90
2016,11,24,05,35,12.90
2016,11,24,05,36,16.10
2016,11,24,05,37,17.70
2016,11,24,05,38,17.70
2016,11,24,05,39,19.30
2016,11,24,05,40,17.70
2016,11,24,05,41,17.70
2016,11,24,05,42,22.50
2016,11,24,05,43,17.70
2016,11,24,05,44,19.30
2016,11,24,05,45,19.30
2016,11,24,05,46,19.30
2016,11,24,05,47,25.70
2016,11,24,05,48,17.70
2016,11,24,05,49,19.30
2016,11,24,05,50,17.70
2016,11,24,05,51,17.70
2016,11,24,05,52,19.30
2016,11,24,05,53,19.30
2016,11,24,05,54,17.70
2016,11,24,05,55,16.10
2016,11,24,05,56,24.20
2016,11,24,05,57,14.50
2016,11,24,05,58,22.50
2016,11,24,05,59,19.30
2016,11,24,06,00,16.10
2016,11,24,06,01,14.50
2016,11,24,06,02,14.50
2016,11,24,06,03,16.10
2016,11,24,06,04,16.10
2016,11,24,06,05,17.70
2016,11,24,06,06,12.90
2016,11,24,06,07,20.90
2016,11,24,06,08,16.10
2016,11,24,06,09,9.60
2016,11,24,06,10,14.50
2016,11,24,06,11,12.90
2016,11,24,06,12,16.10
2016,11,24,06,13,14.50
2016,11,24,06,14,20.90
2016,11,24,06,15,17.70
2016,11,24,06,16,17.70
2016,11,24,06,17,17.70
2016,11,24,06,18,19.30
2016,11,24,06,19,19.30
2016,11,24,06,20,19.30
2016,11,24,06,21,25.70
2016,11,24,06,22,19.30
2016,11,24,06,23,22.50
2016,11,24,06,24,16.10
2016,11,24,06,25,17.70
2016,11,24,06,26,24.20
2016,11,24,06,27,25.70
2016,11,24,06,28,19.30
2016,11,24,06,29,17.70
2016,11,24,06,30,11.30
2016,11,24,06,31,11.30
2016,11,24,06,32,14.50
2016,11,24,06,33,19.30
2016,11,24,06,34,11.30
2016,11,24,06,35,17.70
2016,11,24,06,36,17.70
2016,11,24,06,37,14.50
2016,11,24,06,38,12.90
2016,11,24,06,39,12.90
2016,11,24,06,40,12.90
2016,11,24,06,41,14.50
2016,11,24,06,42,16.10
2016,11,24,06,43,12.90
2016,11,24,06,44,14.50
2016,11,24,06,45,14.50
2016,11,24,06,46,12.90
2016,11,24,06,47,11.30
2016,11,24,06,48,14.50
2016,11,24,06,49,14.50
2016,11,24,06,50,12.90
2016,11,24,06,51,14.50
2016,11,24,06,52,14.50
2016,11,24,06,53,12.90
2016,11,24,06,54,12.90
2016,11,24,06,55,8.10
2016,11,24,06,56,11.30
2016,11,24,06,57,12.90
2016,11,24,06,58,11.30
2016,11,24,06,59,11.30
2016,11,24,07,00,6.40
2016,11,24,07,01,9.60
2016,11,24,07,02,11.30
2016,11,24,07,03,11.30
2016,11,24,07,04,11.30
2016,11,24,07,05,9.60
2016,11,24,07,06,11.30
2016,11,24,07,07,11.30
2016,11,24,07,08,11.30
2016,11,24,07,09,8.10
2016,11,24,07,10,11.30
2016,11,24,07,11,8.10
2016,11,24,07,12,8.10
2016,11,24,07,13,14.50
2016,11,24,07,14,14.50
2016,11,24,07,15,11.30
2016,11,24,07,16,14.50
2016,11,24,07,17,11.30
2016,11,24,07,18,11.30
2016,11,24,07,19,8.10
2016,11,24,07,20,12.90
2016,11,24,07,21,14.50
2016,11,24,07,22,14.50
2016,11,24,07,23,17.70
2016,11,24,07,24,17.70
2016,11,24,07,25,12.90
2016,11,24,07,26,17.70
2016,11,24,07,27,17.70
2016,11,24,07,28,16.10
2016,11,24,07,29,17.70
2016,11,24,07,30,22.50
2016,11,24,07,31,17.70
2016,11,24,07,32,19.30
2016,11,24,07,33,16.10
2016,11,24,07,34,19.30
2016,11,24,07,35,12.90
2016,11,24,07,36,14.50
2016,11,24,07,37,20.90
2016,11,24,07,38,20.90
2016,11,24,07,39,29.00
2016,11,24,07,40,17.70
2016,11,24,07,41,19.30
2016,11,24,07,42,20.90
2016,11,24,07,43,27.40
2016,11,24,07,44,24.20
2016,11,24,07,45,27.40
2016,11,24,07,46,27.40
2016,11,24,07,47,22.50
2016,11,24,07,48,16.10
2016,11,24,07,49,17.70
2016,11,24,07,50,20.90
2016,11,24,07,51,19.30
2016,11,24,07,52,25.70
2016,11,24,07,53,20.90
2016,11,24,07,54,22.50
2016,11,24,07,55,17.70
2016,11,24,07,56,24.20
2016,11,24,07,57,20.90
2016,11,24,07,58,17.70
2016,11,24,07,59,17.70
2016,11,24,08,00,19.30
2016,11,24,08,01,19.30
2016,11,24,08,02,19.30
2016,11,24,08,03,19.30
2016,11,24,08,04,16.10
2016,11,24,08,05,11.30
2016,11,24,08,06,14.50
2016,11,24,08,07,17.70
2016,11,24,08,08,17.70
2016,11,24,08,09,12.90
2016,11,24,08,10,14.50
2016,11,24,08,11,17.70
2016,11,24,08,12,14.50
2016,11,24,08,13,19.30
2016,11,24,08,14,17.70
2016,11,24,08,15,17.70
2016,11,24,08,16,12.90
2016,11,24,08,17,16.10
2016,11,24,08,18,19.30
2016,11,24,08,19,17.70
2016,11,24,08,20,14.50
2016,11,24,08,21,16.10
2016,11,24,08,22,16.10
2016,11,24,08,23,14.50
2016,11,24,08,24,14.50
2016,11,24,08,25,16.10
2016,11,24,08,26,17.70
2016,11,24,08,27,16.10
2016,11,24,08,28,12.90
2016,11,24,08,29,8.10
2016,11,24,08,30,11.30
2016,11,24,08,31,11.30
2016,11,24,08,32,8.10
2016,11,24,08,33,9.60
2016,11,24,08,34,16.10
2016,11,24,08,35,16.10
2016,11,24,08,36,16.10
2016,11,24,08,37,17.70
2016,11,24,08,38,12.90
2016,11,24,08,39,12.90
2016,11,24,08,40,12.90
2016,11,24,08,41,17.70
2016,11,24,08,42,14.50
2016,11,24,08,43,16.10
2016,11,24,08,44,16.10
2016,11,24,08,45,16.10
2016,11,24,08,46,9.60
2016,11,24,08,47,11.30
2016,11,24,08,48,14.50
2016,11,24,08,49,17.70
2016,11,24,08,50,16.10
2016,11,24,08,51,12.90
2016,11,24,08,52,17.70
2016,11,24,08,53,8.10
2016,11,24,08,54,3.20
2016,11,24,08,55,6.40
2016,11,24,08,56,9.60
2016,11,24,08,57,6.40
2016,11,24,08,58,4.80
2016,11,24,08,59,8.10
2016,11,24,09,00,6.40
2016,11,24,09,01,8.10
2016,11,24,09,02,4.80
2016,11,24,09,03,4.80
2016,11,24,09,04,4.80
2016,11,24,09,05,4.80
2016,11,24,09,06,3.20
2016,11,24,09,07,3.20
2016,11,24,09,08,6.40
2016,11,24,09,09,4.80
2016,11,24,09,10,3.20
2016,11,24,09,11,6.40
2016,11,24,09,12,4.80
2016,11,24,09,13,9.60
2016,11,24,09,14,9.60
2016,11,24,09,15,6.40
2016,11,24,09,16,6.40
2016,11,24,09,17,6.40
2016,11,24,09,18,6.40
2016,11,24,09,19,8.10
2016,11,24,09,20,11.30
2016,11,24,09,21,9.60
2016,11,24,09,22,8.10
2016,11,24,09,23,12.90
2016,11,24,09,24,11.30
2016,11,24,09,25,19.30
2016,11,24,09,26,11.30
2016,11,24,09,27,22.50
2016,11,24,09,28,17.70
2016,11,24,09,29,14.50
2016,11,24,09,30,14.50
2016,11,24,09,31,16.10
2016,11,24,09,32,24.20
2016,11,24,09,33,24.20
2016,11,24,09,34,25.70
2016,11,24,09,35,25.70
2016,11,24,09,36,22.50
2016,11,24,09,37,25.70
2016,11,24,09,38,25.70
2016,11,24,09,39,27.40
2016,11,24,09,40,27.40
2016,11,24,09,41,19.30
2016,11,24,09,42,22.50
2016,11,24,09,43,20.90
2016,11,24,09,44,17.70
2016,11,24,09,45,19.30
2016,11,24,09,46,27.40
2016,11,24,09,47,25.70
2016,11,24,09,48,22.50
2016,11,24,09,49,25.70
2016,11,24,09,50,17.70
2016,11,24,09,51,22.50
2016,11,24,09,52,16.10
2016,11,24,09,53,17.70
2016,11,24,09,54,19.30
2016,11,24,09,55,22.50
2016,11,24,09,56,27.40
2016,11,24,09,57,25.70
2016,11,24,09,58,20.90
2016,11,24,09,59,16.10
2016,11,24,10,00,16.10
2016,11,24,10,01,14.50
2016,11,24,10,02,12.90
2016,11,24,10,03,16.10
2016,11,24,10,04,17.70
2016,11,24,10,05,14.50
2016,11,24,10,06,12.90
2016,11,24,10,07,19.30
2016,11,24,10,08,20.90
2016,11,24,10,09,16.10
2016,11,24,10,10,19.30
2016,11,24,10,11,22.50
2016,11,24,10,12,17.70
2016,11,24,10,13,16.10
2016,11,24,10,14,17.70
2016,11,24,10,15,11.30
2016,11,24,10,16,16.10
2016,11,24,10,17,20.90
2016,11,24,10,18,16.10
2016,11,24,10,19,14.50
2016,11,24,10,20,16.10
2016,11,24,10,21,9.60
2016,11,24,10,22,9.60
2016,11,24,10,23,9.60
2016,11,24,10,24,14.50
2016,11,24,10,25,12.90
2016,11,24,10,26,14.50
2016,11,24,10,27,16.10
2016,11,24,10,28,14.50
2016,11,24,10,29,11.30
2016,11,24,10,30,11.30
2016,11,24,10,31,16.10
2016,11,24,10,32,11.30
2016,11,24,10,33,9.60
2016,11,24,10,34,11.30
2016,11,24,10,35,11.30
2016,11,24,10,36,20.90
2016,11,24,10,37,17.70
2016,11,24,10,38,14.50
2016,11,24,10,39,14.50
2016,11,24,10,40,24.20
2016,11,24,10,41,24.20
2016,11,24,10,42,17.70
2016,11,24,10,43,22.50
2016,11,24,10,44,16.10
2016,11,24,10,45,16.10
2016,11,24,10,46,16.10
2016,11,24,10,47,16.10
2016,11,24,10,48,14.50
2016,11,24,10,49,16.10
2016,11,24,10,50,12.90
2016,11,24,10,51,16.10
2016,11,24,10,52,17.70
2016,11,24,10,53,11.30
2016,11,24,10,54,12.90
2016,11,24,10,55,14.50
2016,11,24,10,56,16.10
2016,11,24,10,57,16.10
2016,11,24,10,58,16.10
2016,11,24,10,59,12.90
2016,11,24,11,00,11.30
2016,11,24,11,01,9.60
2016,11,24,11,02,9.60
2016,11,24,11,03,11.30
2016,11,24,11,04,14.50
2016,11,24,11,05,11.30
2016,11,24,11,06,11.30
2016,11,24,11,07,8.10
2016,11,24,11,08,12.90
2016,11,24,11,09,14.50
2016,11,24,11,10,12.90
2016,11,24,11,11,11.30
2016,11,24,11,12,11.30
2016,11,24,11,13,8.10
2016,11,24,11,14,6.40
2016,11,24,11,15,9.60
2016,11,24,11,16,11.30
2016,11,24,11,17,8.10
2016,11,24,11,18,9.60
2016,11,24,11,19,11.30
2016,11,24,11,20,14.50
2016,11,24,11,21,16.10
2016,11,24,11,22,12.90
2016,11,24,11,23,12.90
2016,11,24,11,24,12.90
2016,11,24,11,25,8.10
2016,11,24,11,26,6.40
2016,11,24,11,27,9.60
2016,11,24,11,28,6.40
2016,11,24,11,29,14.50
2016,11,24,11,30,9.60
2016,11,24,11,31,6.40
2016,11,24,11,32,9.60
2016,11,24,11,33,14.50
2016,11,24,11,34,8.10
2016,11,24,11,35,11.30
2016,11,24,11,36,16.10
2016,11,24,11,37,14.50
2016,11,24,11,38,8.10
2016,11,24,11,39,8.10
2016,11,24,11,40,9.60
2016,11,24,11,41,11.30
2016,11,24,11,42,9.60
2016,11,24,11,43,9.60
2016,11,24,11,44,8.10
2016,11,24,11,45,11.30
2016,11,24,11,46,11.30
2016,11,24,11,47,8.10
2016,11,24,11,48,6.40
2016,11,24,11,49,11.30
2016,11,24,11,50,12.90
2016,11,24,11,51,14.50
2016,11,24,11,52,14.50
2016,11,24,11,53,11.30
2016,11,24,11,54,14.50
2016,11,24,11,55,16.10
2016,11,24,11,56,14.50
2016,11,24,11,57,12.90
2016,11,24,11,58,14.50
2016,11,24,11,59,16.10
2016,11,24,12,00,12.90
2016,11,24,12,01,14.50
2016,11,24,12,02,12.90
2016,11,24,12,03,12.90
2016,11,24,12,04,11.30
2016,11,24,12,05,11.30
2016,11,24,12,06,11.30
2016,11,24,12,07,16.10
2016,11,24,12,08,16.10
2016,11,24,12,09,17.70
2016,11,24,12,10,16.10
2016,11,24,12,11,19.30
2016,11,24,12,12,14.50
2016,11,24,12,13,19.30
2016,11,24,12,14,20.90
2016,11,24,12,15,14.50
2016,11,24,12,16,16.10
2016,11,24,12,17,17.70
2016,11,24,12,18,19.30
2016,11,24,12,19,17.70
2016,11,24,12,20,16.10
2016,11,24,12,21,14.50
2016,11,24,12,22,12.90
2016,11,24,12,23,16.10
2016,11,24,12,24,12.90
2016,11,24,12,25,14.50
2016,11,24,12,26,11.30
2016,11,24,12,27,14.50
2016,11,24,12,28,12.90
2016,11,24,12,29,14.50
2016,11,24,12,30,14.50
2016,11,24,12,31,12.90
2016,11,24,12,32,14.50
2016,11,24,12,33,14.50
2016,11,24,12,34,12.90
2016,11,24,12,35,16.10
2016,11,24,12,36,14.50
2016,11,24,12,37,12.90
2016,11,24,12,38,14.50
2016,11,24,12,39,12.90
2016,11,24,12,40,11.30
2016,11,24,12,41,12.90
2016,11,24,12,42,11.30
2016,11,24,12,43,12.90
2016,11,24,12,44,11.30
2016,11,24,12,45,11.30
2016,11,24,12,46,11.30
2016,11,24,12,47,8.10
2016,11,24,12,48,8.10
2016,11,24,12,49,12.90
2016,11,24,12,50,12.90
2016,11,24,12,51,12.90
2016,11,24,12,52,9.60
2016,11,24,12,53,12.90
2016,11,24,12,54,14.50
2016,11,24,12,55,12.90
2016,11,24,12,56,11.30
2016,11,24,12,57,8.10
2016,11,24,12,58,12.90
2016,11,24,12,59,11.30
2016,11,24,13,00,11.30
2016,11,24,13,01,9.60
2016,11,24,13,02,12.90
2016,11,24,13,03,8.10
2016,11,24,13,04,6.40
2016,11,24,13,05,3.20
2016,11,24,13,06,3.20
2016,11,24,13,07,4.80
2016,11,24,13,08,3.20
2016,11,24,13,09,3.20
2016,11,24,13,10,3.20
2016,11,24,13,11,4.80
2016,11,24,13,12,3.20
2016,11,24,13,13,3.20
2016,11,24,13,14,1.60
2016,11,24,13,15,3.20
2016,11,24,13,16,3.20
2016,11,24,13,17,4.80
2016,11,24,13,18,4.80
2016,11,24,13,19,4.80
2016,11,24,13,20,6.40
2016,11,24,13,21,6.40
2016,11,24,13,22,8.10
2016,11,24,13,23,4.80
2016,11,24,13,24,4.80
2016,11,24,13,25,4.80
2016,11,24,13,26,6.40
2016,11,24,13,27,4.80
2016,11,24,13,28,6.40
2016,11,24,13,29,3.20
2016,11,24,13,30,4.80
2016,11,24,13,31,4.80
2016,11,24,13,32,4.80
2016,11,24,13,33,3.20
2016,11,24,13,34,4.80
2016,11,24,13,35,4.80
2016,11,24,13,36,4.80
2016,11,24,13,37,3.20
2016,11,24,13,38,4.80
2016,11,24,13,39,1.60
2016,11,24,13,40,3.20
2016,11,24,13,41,1.60
2016,11,24,13,44,1.60
2016,11,24,13,54,6.40
2016,11,24,13,55,6.40
2016,11,24,13,56,6.40
2016,11,24,13,57,6.40
2016,11,24,13,58,4.80
2016,11,24,13,59,4.80
2016,11,24,14,00,8.10
2016,11,24,14,01,8.10
2016,11,24,14,02,6.40
2016,11,24,14,03,6.40
2016,11,24,14,04,6.40
2016,11,24,14,05,4.80
2016,11,24,14,06,4.80
2016,11,24,14,07,3.20
2016,11,24,14,08,3.20
2016,11,24,14,09,3.20
2016,11,24,14,10,3.20
2016,11,24,14,11,3.20
2016,11,24,14,12,3.20
2016,11,24,14,13,6.40
2016,11,24,14,14,4.80
2016,11,24,14,15,4.80
2016,11,24,14,16,4.80
2016,11,24,14,17,3.20
2016,11,24,14,18,1.60
2016,11,24,14,19,4.80
2016,11,24,14,20,4.80
2016,11,24,14,21,6.40
2016,11,24,14,22,3.20
2016,11,24,14,23,1.60
2016,11,24,14,24,3.20
2016,11,24,14,25,4.80
2016,11,24,14,26,4.80
2016,11,24,14,27,3.20
2016,11,24,14,28,3.20
2016,11,24,14,29,3.20
2016,11,24,14,30,3.20
2016,11,24,14,31,3.20
2016,11,24,14,32,1.60
2016,11,24,14,33,4.80
2016,11,24,14,34,4.80
2016,11,24,14,35,3.20
2016,11,24,14,36,3.20
2016,11,24,14,37,3.20
2016,11,24,14,38,6.40
2016,11,24,14,39,6.40
2016,11,24,14,40,4.80
2016,11,24,14,41,1.60
2016,11,24,14,42,3.20
2016,11,24,14,43,3.20
2016,11,24,14,44,1.60
2016,11,24,14,45,3.20
2016,11,24,14,46,3.20
2016,11,24,14,47,3.20
2016,11,24,14,48,1.60
2016,11,24,14,49,1.60
2016,11,24,15,01,4.80
2016,11,24,15,02,8.10
2016,11,24,15,03,8.10
2016,11,24,15,04,12.90
2016,11,24,15,05,6.40
2016,11,24,15,06,6.40
2016,11,24,15,07,6.40
2016,11,24,15,08,11.30
2016,11,24,15,09,11.30
2016,11,24,15,10,11.30
2016,11,24,15,11,14.50
2016,11,24,15,12,14.50
2016,11,24,15,13,14.50
2016,11,24,15,14,12.90
2016,11,24,15,15,11.30
2016,11,24,15,16,11.30
2016,11,24,15,17,11.30
2016,11,24,15,18,9.60
2016,11,24,15,19,4.80
2016,11,24,15,20,11.30
2016,11,24,15,21,12.90
2016,11,24,15,22,11.30
2016,11,24,15,23,14.50
2016,11,24,15,24,16.10
2016,11,24,15,25,14.50
2016,11,24,15,26,12.90
2016,11,24,15,27,8.10
2016,11,24,15,28,9.60
2016,11,24,15,29,8.10
2016,11,24,15,30,9.60
2016,11,24,15,31,6.40
2016,11,24,15,32,8.10
2016,11,24,15,33,11.30
2016,11,24,15,34,6.40
2016,11,24,15,35,6.40
2016,11,24,15,36,6.40
2016,11,24,15,37,8.10
2016,11,24,15,38,11.30
2016,11,24,15,39,11.30
2016,11,24,15,40,4.80
2016,11,24,15,41,3.20
2016,11,24,15,42,3.20
2016,11,24,15,43,4.80
2016,11,24,15,44,1.60
2016,11,24,15,45,1.60
2016,11,24,15,56,4.80
2016,11,24,15,57,4.80
2016,11,24,15,58,4.80
2016,11,24,15,59,4.80
2016,11,24,16,00,4.80
2016,11,24,16,01,9.60
2016,11,24,16,02,9.60
2016,11,24,16,03,6.40
2016,11,24,16,04,4.80
2016,11,24,16,05,8.10
2016,11,24,16,06,6.40
2016,11,24,16,07,9.60
2016,11,24,16,08,3.20
2016,11,24,16,09,4.80
2016,11,24,16,10,3.20
2016,11,24,16,11,4.80
2016,11,24,16,12,3.20
2016,11,24,16,13,3.20
2016,11,24,16,14,3.20
2016,11,24,16,15,3.20
2016,11,24,16,16,1.60
2016,11,24,16,18,1.60
2016,11,24,16,19,1.60
2016,11,24,16,21,1.60
2016,11,24,17,08,3.20
2016,11,24,17,09,3.20
2016,11,24,17,10,1.60
2016,11,24,17,12,4.80
2016,11,24,17,13,4.80
2016,11,24,17,14,6.40
2016,11,24,17,15,6.40
2016,11,24,17,16,4.80
2016,11,24,17,17,3.20
2016,11,24,17,18,1.60
2016,11,24,17,19,3.20
2016,11,24,17,20,3.20
2016,11,24,17,21,1.60
2016,11,24,17,24,3.20
2016,11,24,17,25,3.20
2016,11,24,17,26,4.80
2016,11,24,17,27,3.20
2016,11,24,17,28,3.20
2016,11,24,17,29,3.20
2016,11,24,17,30,3.20
2016,11,24,17,31,1.60
2016,11,24,17,32,1.60
2016,11,24,17,33,1.60
2016,11,24,17,34,1.60
2016,11,24,17,37,1.60
2016,11,24,17,54,6.40
2016,11,24,17,55,6.40
2016,11,24,17,56,8.10
2016,11,24,17,57,6.40
2016,11,24,17,58,4.80
2016,11,24,17,59,3.20
2016,11,24,18,00,3.20
2016,11,24,18,01,1.60
2016,11,24,18,03,1.60
2016,11,24,18,08,3.20
2016,11,24,18,09,3.20
2016,11,24,18,10,1.60
2016,11,24,18,15,4.80
2016,11,24,18,16,6.40
2016,11,24,18,17,6.40
2016,11,24,18,18,6.40
2016,11,24,18,19,4.80
2016,11,24,18,20,6.40
2016,11,24,18,21,4.80
2016,11,24,18,22,4.80
2016,11,24,18,23,4.80
2016,11,24,18,24,3.20
2016,11,24,18,25,3.20
2016,11,24,18,26,4.80
2016,11,24,18,27,3.20
2016,11,24,18,28,1.60
2016,11,24,18,29,3.20
2016,11,24,18,30,3.20
2016,11,24,18,31,1.60
2016,11,24,18,32,1.60
2016,11,24,18,33,1.60
2016,11,24,18,34,1.60
2016,11,24,18,35,1.60
2016,11,24,18,36,1.60
2016,11,24,18,37,1.60
2016,11,24,18,38,1.60
2016,11,24,18,39,1.60
2016,11,24,18,40,3.20
2016,11,24,18,41,3.20
2016,11,24,18,42,1.60
2016,11,24,18,46,1.60
2016,11,24,18,51,1.60
2016,11,24,18,52,1.60
2016,11,24,18,53,3.20
2016,11,24,18,54,3.20
2016,11,24,18,55,3.20
2016,11,24,18,56,3.20
2016,11,24,18,57,3.20
2016,11,24,18,58,3.20
2016,11,24,18,59,4.80
2016,11,24,19,00,4.80
2016,11,24,19,01,4.80
2016,11,24,19,02,3.20
2016,11,24,19,03,3.20
2016,11,24,19,05,1.60
2016,11,24,19,11,4.80
2016,11,24,19,12,4.80
2016,11,24,19,13,4.80
2016,11,24,19,14,3.20
2016,11,24,19,15,3.20
2016,11,24,19,16,4.80
2016,11,24,19,17,6.40
2016,11,24,19,18,6.40
2016,11,24,19,19,3.20
2016,11,24,19,20,4.80
2016,11,24,19,21,3.20
2016,11,24,19,22,3.20
2016,11,24,19,23,1.60
2016,11,24,19,36,1.60
2016,11,24,19,37,3.20
2016,11,24,19,38,4.80
2016,11,24,19,39,3.20
2016,11,24,19,40,3.20
2016,11,24,19,41,1.60
2016,11,24,19,42,1.60
2016,11,24,19,54,1.60
2016,11,24,19,55,1.60
2016,11,24,19,56,3.20
2016,11,24,19,58,1.60
2016,11,24,19,59,1.60
2016,11,24,20,00,3.20
2016,11,24,20,01,1.60